Location: Lake Arresoe
(56.0000°N, 12.5000°E)
Time: 14:56:16
(UTC+02:00)

Resurs 1-4 Rocket - Pass Details

Date: 27 July 2021
Orbit: 799 x 814 km, 98.6° (Epoch: 27 September)

Event Time Altitude Azimuth Distance (km) Brightness Sun altitude
Rises 02:57:48 0° 16° (NNE) 3,353 7.3 -11.8°
Reaches altitude 10° 03:00:09 10° 18° (NNE) 2,415 6.1 -11.7°
Maximum altitude 03:05:31 78° 105° (ESE) 834 2.2 -11.4°
Enters shadow 03:10:10 14° 192° (SSW) 2,138 3.7 -11.1°
